Columbia County, Pennsylvania, United States
Lat: 41.04N, Lon: 76.43W
Wx Zone: PAZ053
Local Info
Past Weather Observations for Thursday, March 26, 2015

NOTE: This archive is for the closest National Weather Service station to Columbia County. Information may differ from the station used for current weather conditions.

Click here for Long-term Archive

Time Weather Temperature Dewpoint Humidity Pressure Winds Precip Visibility
23:53
Overcast
43°F / 6°C 37°F / 3°C 81% 29.8 in
(1009 mb)
Calm - 10SM
22:53
Mostly Cloudy
41°F / 5°C 37°F / 3°C 87% 29.8 in
(1009 mb)
N 4.6 mph
(N 7 kph)
- 10SM
21:53
Partly Cloudy
43°F / 6°C 37°F / 3°C 81% 29.77 in
(1008 mb)
NW 4.6 mph
(NW 7 kph)
- 10SM
20:53
Clear
43°F / 6°C 39°F / 4°C 87% 29.77 in
(1008 mb)
NW 5.8 mph
(NW 9 kph)
0.00 in
(0.00 mm)
10SM
19:53
Overcast
45°F / 7°C 39°F / 4°C 81% 29.77 in
(1008 mb)
N 8.1 mph
(N 13 kph)
0.01 in
(0.25 mm)
10SM
19:39
Overcast
Light Rain
45°F / 7°C 39°F / 4°C 81% 29.77 in
(1008 mb)
N 5.8 mph
(N 9 kph)
0.01 in
(0.25 mm)
10SM
18:53
Overcast
46°F / 8°C 43°F / 6°C 87% 29.74 in
(1007 mb)
NNW 10.4 mph
(NNW 17 kph)
0.01 in
(0.25 mm)
10SM
18:32
Overcast
Light Rain
46°F / 8°C 43°F / 6°C 87% 29.74 in
(1007 mb)
N 9.2 mph
(N 15 kph)
0.01 in
(0.25 mm)
10SM
17:53
Overcast
Light Rain
46°F / 8°C 45°F / 7°C 93% 29.68 in
(1005 mb)
N 10.4 mph
(N 17 kph)
0.01 in
(0.25 mm)
5SM
16:53
Overcast
Light Rain
48°F / 9°C 45°F / 7°C 87% 29.68 in
(1005 mb)
N 8.1 mph
(N 13 kph)
0.03 in
(0.76 mm)
6SM
16:24
Overcast
Light Rain
50°F / 10°C 45°F / 7°C 82% 29.65 in
(1004 mb)
NW 12.7 mph
(NW 20 kph)
0.02 in
(0.51 mm)
4SM
16:16
Overcast
Light Rain
50°F / 10°C 46°F / 8°C 88% 29.65 in
(1004 mb)
NW 11.5 mph
(NW 19 kph)
0.02 in
(0.51 mm)
2 1/2SM
15:53
Overcast
Light Rain
55°F / 13°C 46°F / 8°C 72% 29.62 in
(1003 mb)
NNW 16.1 mph
(NNW 26 kph)
0.00 in
(0.00 mm)
6SM
14:53
Mostly Cloudy
63°F / 17°C 54°F / 12°C 73% 29.59 in
(1002 mb)
SSE 6.9 mph
(SSE 11 kph)
- 10SM
14:36
Mostly Cloudy
63°F / 17°C 54°F / 12°C 73% 29.59 in
(1002 mb)
S 12.7 mph
(S 20 kph)
- 10SM
13:53
Partly Cloudy
63°F / 17°C 52°F / 11°C 68% 29.62 in
(1003 mb)
S 18.4 mph
(S 30 kph)
- 10SM
12:53
Clear
61°F / 16°C 48°F / 9°C 63% 29.68 in
(1005 mb)
S 10.4 mph
(S 17 kph)
- 10SM
12:01
Partly Cloudy
55°F / 13°C 45°F / 7°C 67% 29.71 in
(1006 mb)
SSE 6.9 mph
(SSE 11 kph)
- 8SM
11:53
Mostly Cloudy
55°F / 13°C 45°F / 7°C 67% 29.71 in
(1006 mb)
Calm - 8SM
11:31
Overcast
54°F / 12°C 43°F / 6°C 67% 29.74 in
(1007 mb)
Variable 5.8 mph
(Variable 9 kph)
- 7SM
10:53
Overcast
Hazy
50°F / 10°C 41°F / 5°C 71% 29.8 in
(1009 mb)
S 6.9 mph
(S 11 kph)
- 6SM
09:53
Overcast
Hazy
43°F / 6°C 36°F / 2°C 76% 29.83 in
(1010 mb)
Calm - 4SM
08:53
Overcast
Hazy
39°F / 4°C 34°F / 1°C 81% 29.89 in
(1012 mb)
Calm - 4SM
07:53
Overcast
Fog And Mist
36°F / 2°C 32°F / 0°C 87% 29.92 in
(1013 mb)
ESE 3.5 mph
(ESE 6 kph)
- 4SM
07:18
Overcast
Fog And Mist
36°F / 2°C 32°F / 0°C 87% 29.95 in
(1014 mb)
Calm - 3SM
06:53
Mostly Cloudy
Fog And Mist
34°F / 1°C 30°F / -1°C 87% 29.95 in
(1014 mb)
Calm - 2 1/2SM
06:10
Mostly Cloudy
Fog And Mist
30°F / -1°C 30°F / -1°C 100% 29.95 in
(1014 mb)
NNW 4.6 mph
(NNW 7 kph)
- 2SM
05:53
Mostly Cloudy
Fog And Mist
32°F / 0°C 30°F / -1°C 93% 29.95 in
(1014 mb)
Calm - 3SM
04:53
Partly Cloudy
Fog And Mist
30°F / -1°C 28°F / -2°C 93% 29.98 in
(1015 mb)
Calm - 4SM
03:53
Clear
Fog And Mist
30°F / -1°C 28°F / -2°C 93% 30.01 in
(1016 mb)
Calm - 4SM
02:53
Clear
Fog And Mist
30°F / -1°C 28°F / -2°C 93% 30.04 in
(1017 mb)
Calm - 5SM
01:53
Clear
Fog And Mist
32°F / 0°C 30°F / -1°C 93% 30.04 in
(1017 mb)
Calm - 6SM
00:53
Clear
34°F / 1°C 30°F / -1°C 87% 30.06 in
(1018 mb)
Calm - 8SM
Time Weather Temperature Dewpoint Humidity Pressure Winds Precip Visibility


Weather for websites

WeatherForYou.com, LLC is not responsible for any damages or problems caused by this service. Current weather conditions are obtained from the closest station including government and personal stations which may have varying degrees of accuracy. Weather forecasts are derived from the NOAA NDFD. Like all things, this site belongs to Jesus Christ... He just trusts me to maintain it. If you have any questions or comments email webmaster@weatherforyou.com

Copyright © 2015, WeatherForYou.com LLC. All rights reserved.